Location: Franzen
(48.6167°N, 15.3833°E)
Time: 21:05:36
(UTC+00:00)

Cosmos 2219 - Visible Passes

Search period start: 29 July 2021 00:00
Search period end: 08 August 2021 00:00
Orbit: 832 x 861 km, 71.1° (Epoch: 28 July)

Date Brightness Start Highest point End Pass type
(mag) Time Alt. Az. Time Alt. Az. Time Alt. Az.
29 Jul 3.9 00:35:52 26° WSW 00:38:47 48° NW 00:44:22 10° NNE visible
29 Jul 5.5 02:21:35 10° WNW 02:24:28 14° NNW 02:27:21 10° N visible
29 Jul 4.1 22:40:38 32° ESE 22:41:18 33° ESE 22:46:21 10° NE visible
30 Jul 3.9 00:22:32 28° WSW 00:25:16 49° NW 00:30:52 10° NNE visible
30 Jul 5.5 02:07:59 10° WNW 02:10:56 14° NNW 02:13:52 10° N visible
30 Jul 4.1 22:27:17 31° ESE 22:27:48 32° ESE 22:32:50 10° NE visible
31 Jul 3.8 00:09:11 30° WSW 00:11:45 50° NW 00:17:22 10° NNE visible
31 Jul 5.5 01:54:23 10° WNW 01:57:23 14° NNW 02:00:24 10° N visible
31 Jul 4.1 22:13:54 31° ESE 22:14:18 31° ESE 22:19:18 10° NE visible
31 Jul 3.8 23:55:48 31° WSW 23:58:14 51° NW 00:03:51 10° NNE visible
01 Aug 5.5 01:40:47 10° WNW 01:43:51 14° NNW 01:46:54 10° N visible
01 Aug 4.1 22:00:29 30° ESE 22:00:49 30° ESE 22:05:46 10° NE visible
01 Aug 3.8 23:42:22 32° WSW 23:44:42 52° NW 23:50:21 10° NNE visible
02 Aug 5.6 01:27:12 10° WNW 01:30:18 15° NNW 01:33:26 10° N visible
02 Aug 4.2 21:47:02 30° ESE 21:47:18 30° ESE 21:52:14 10° NE visible
02 Aug 3.8 23:28:55 33° WSW 23:31:11 53° NW 23:36:51 10° NNE visible
03 Aug 5.6 01:13:36 10° WNW 01:16:46 15° NNW 01:19:57 10° N visible
03 Aug 4.2 21:33:32 29° ESE 21:33:49 29° ESE 21:38:42 10° NE visible
03 Aug 3.8 23:15:25 34° WSW 23:17:40 54° WNW 23:23:21 10° NNE visible
04 Aug 5.6 01:00:01 10° WNW 01:03:14 15° NNW 01:06:28 10° N visible
04 Aug 4.2 21:20:00 28° ESE 21:20:19 29° ESE 21:25:10 10° NE visible
04 Aug 3.7 23:01:53 34° WSW 23:04:10 55° NW 23:09:51 10° NNE visible
05 Aug 5.6 00:46:26 10° WNW 00:49:42 15° NNW 00:52:58 10° N visible
05 Aug 4.2 21:06:24 28° ESE 21:06:49 28° ESE 21:11:38 10° NE visible
05 Aug 3.7 22:48:18 34° WSW 22:50:39 56° WNW 22:56:20 10° NNE visible
06 Aug 5.6 00:32:50 10° WNW 00:36:10 15° NNW 00:39:29 10° N visible
06 Aug 4.2 20:52:45 27° ESE 20:53:20 27° ESE 20:58:06 10° NE visible
06 Aug 3.7 22:34:38 32° WSW 22:37:08 57° WNW 22:42:50 10° NNE visible
07 Aug 5.7 00:19:15 10° WNW 00:22:37 16° NW 00:26:00 10° N visible
07 Aug 4.2 20:39:02 26° ESE 20:39:50 27° ESE 20:44:34 10° NE visible
07 Aug 3.7 22:20:54 30° WSW 22:23:37 58° WNW 22:29:20 10° NNE visible
